TimeAKDT,TemperatureF,Dew PointF,Humidity,Sea Level PressureIn,VisibilityMPH,Wind Direction,Wind SpeedMPH,Gust SpeedMPH,PrecipitationIn,Events,Conditions,WindDirDegrees,DateUTC
12:53 AM,27.0,23.0,85,29.87,9.0,Calm,Calm,-,0.00,Snow,Light Snow,0,2013-11-01 08:53:00
1:00 AM,26.6,24.8,93,29.87,9.0,Calm,Calm,-,0.00,Snow,Light Snow,0,2013-11-01 09:00:00
1:10 AM,26.6,24.8,93,29.88,9.0,Calm,Calm,-,0.00,Snow,Light Snow,0,2013-11-01 09:10:00
1:53 AM,28.0,24.1,85,29.88,9.0,ENE,3.5,-,0.00,Snow,Light Snow,70,2013-11-01 09:53:00
2:05 AM,28.4,24.8,86,29.88,9.0,NE,3.5,-,0.00,Snow,Light Snow,40,2013-11-01 10:05:00
2:41 AM,28.4,24.8,86,29.89,9.0,Calm,Calm,-,0.00,Snow,Light Snow,0,2013-11-01 10:41:00
2:53 AM,28.0,25.0,88,29.90,9.0,Calm,Calm,-,0.00,Snow,Light Snow,0,2013-11-01 10:53:00
3:33 AM,28.4,24.8,86,29.91,9.0,Calm,Calm,-,0.00,Snow,Light Snow,0,2013-11-01 11:33:00
3:53 AM,28.0,25.0,88,29.92,9.0,Calm,Calm,-,0.00,Snow,Light Snow,0,2013-11-01 11:53:00
4:05 AM,28.4,26.6,93,29.91,9.0,Calm,Calm,-,0.00,Snow,Light Snow,0,2013-11-01 12:05:00
4:12 AM,28.4,26.6,93,29.92,9.0,Calm,Calm,-,0.00,Snow,Light Snow,0,2013-11-01 12:12:00
4:53 AM,28.9,26.1,89,29.93,9.0,Calm,Calm,-,0.00,Snow,Light Snow,0,2013-11-01 12:53:00
5:24 AM,28.4,24.8,86,29.93,9.0,NW,6.9,-,0.00,,Overcast,310,2013-11-01 13:24:00
5:53 AM,30.0,21.9,72,29.93,10.0,WSW,9.2,-,0.00,,Overcast,250,2013-11-01 13:53:00
6:53 AM,30.9,19.9,64,29.94,10.0,WSW,11.5,-,N/A,,Overcast,250,2013-11-01 14:53:00
7:53 AM,30.9,19.0,61,29.95,9.0,SW,8.1,-,0.00,Snow,Light Snow,230,2013-11-01 15:53:00
8:53 AM,30.0,18.0,61,29.96,10.0,SSW,8.1,-,N/A,,Overcast,210,2013-11-01 16:53:00
9:53 AM,30.9,19.0,61,29.96,10.0,WSW,11.5,-,N/A,,Overcast,250,2013-11-01 17:53:00
10:53 AM,30.0,19.0,64,29.98,10.0,WSW,10.4,-,N/A,,Overcast,240,2013-11-01 18:53:00
11:53 AM,30.0,19.0,64,29.98,10.0,SW,11.5,-,N/A,,Overcast,220,2013-11-01 19:53:00
12:53 PM,30.0,19.0,64,29.99,10.0,SW,10.4,-,N/A,,Partly Cloudy,220,2013-11-01 20:53:00
1:53 PM,30.9,19.9,64,30.00,10.0,SW,5.8,-,N/A,,Mostly Cloudy,220,2013-11-01 21:53:00
2:53 PM,30.9,21.9,69,29.99,10.0,SSE,3.5,-,N/A,,Partly Cloudy,150,2013-11-01 22:53:00
3:53 PM,32.0,24.1,73,29.99,10.0,SSE,4.6,-,N/A,,Overcast,160,2013-11-01 23:53:00
4:53 PM,33.1,25.0,72,29.97,9.0,ESE,4.6,-,N/A,,Overcast,120,2013-11-02 00:53:00
5:01 PM,33.8,24.8,70,29.97,10.0,SE,5.8,-,N/A,,Overcast,130,2013-11-02 01:01:00
5:53 PM,34.0,26.1,73,29.95,10.0,South,12.7,16.1,N/A,,Overcast,170,2013-11-02 01:53:00
6:05 PM,33.8,26.6,75,29.94,10.0,South,16.1,-,N/A,,Overcast,170,2013-11-02 02:05:00
6:53 PM,33.1,26.1,75,29.94,10.0,SSE,17.3,-,N/A,,Overcast,160,2013-11-02 02:53:00
7:53 PM,32.0,27.0,82,29.93,10.0,SE,18.4,24.2,0.00,,Overcast,140,2013-11-02 03:53:00
8:53 PM,30.9,27.0,85,29.93,9.0,SE,15.0,23.0,0.00,Snow,Light Snow,140,2013-11-02 04:53:00
9:53 PM,30.9,26.1,82,29.90,10.0,SE,18.4,-,0.00,,Overcast,140,2013-11-02 05:53:00
10:53 PM,30.0,25.0,82,29.89,10.0,SE,18.4,25.3,0.00,,Overcast,140,2013-11-02 06:53:00
11:53 PM,28.9,26.1,89,29.88,7.0,SE,13.8,-,0.00,Snow,Light Snow,130,2013-11-02 07:53:00